Other Surface Observations
Issued by NWS Tucson, AZ

Home | Current Version | Previous Version | Text Only | Print | Product List | Glossary On
Versions: 1 2 3 4 5 6 7 8 9 10 11 12 13 14 15 16 17 18 19 20 21 22 23 24 25 26 27 28 29 30 31 32 33 34 35 36 37 38 39 40 41 42 43 44 45 46 47 48 49 50
191
SXUS55 KTWC 192315
OSOTWC

WEATHER ROUNDUP FOR SOUTHEAST ARIZONA
NATIONAL WEATHER SERVICE TUCSON AZ
415 PM MST FRI JAN 19 2018

AZZ504>506-514-200015-
LOCATION       SKY/WX    TMP DP  RH WIND       PRES   REMARKS
TUCSON         SUNNY     78  18  10 CALM      29.95F
DAVIS-MONTHAN  SUNNY     78  20  11 E3        29.93F
CHILDRENS PARK N/A      N/A N/A  12 E4                PIMA CO DEQ
ALVERNON/22ND  N/A       77 N/A N/A NE2               PIMA CO DEQ
CHERRY/GLENN   N/A       77 N/A N/A E2                PIMA CO DEQ
TANGERINE      N/A       76 N/A N/A W2                PIMA CO DEQ
CONTL RANCH    N/A       76  22  13 N3                PIMA CO DEQ
GRANT/1ST      N/A       76  20  12 SE5               PIMA CO DEQ
CRAYCROFT/22ND N/A       77  21  12 NE4               PIMA CO DEQ
GOLFLINKS/KOLB N/A       74  20  13 N/A               PIMA CO DEQ
AJO/12TH       N/A       76  22  13 SE4               PIMA CO DEQ
FAIRGROUNDS    N/A       75 N/A N/A W10               PIMA CO DEQ
SAGUARO        N/A       79  20  11 CALM              *SABINO CYN
SAN CARLOS     N/A       65  23  20 CALM              *SAN CARLOS
GREEN VALLEY   N/A       77  18  11 SW10              PIMA CO DEQ
HORSE CAMP CYN N/A       69  19  15 SW10G17           *ARAVAIPA CYN
RINCON MTNS    N/A       54  12  19 SW4G11            *NR MANNING CAMP
$$

AZZ509>511-200015-
LOCATION       SKY/WX    TMP DP  RH WIND       PRES   REMARKS
SAFFORD        SUNNY     66  18  15 VRB3      29.97F
STRAY HORSE    N/A       55   8  15 SW9G22            *
TRAIL CABIN    N/A       60  15  17 SW4G16            *N OF GRANVILLE
BLACK HILLS    NOT AVBL
DRY LAKE       N/A       54   9  16 W6G12             *NATANES MTNS
NOON CREEK     N/A       62  17  17 E3                *PINALENO MTNS
COLUMBINE      N/A       47   9  21 SW5G12            *PINALENO MTNS
GUTHRIE        N/A       57  16  20 S3G13             *SW OF GUTHRIE
$$

AZZ502-503-513-200015-
LOCATION       SKY/WX    TMP DP  RH WIND       PRES   REMARKS
NOGALES        SUNNY     72  14  11 SW9       30.00F
SELLS          N/A       78   9   7 SW9G16            *
SASABE         N/A       75  15  10 SW11G16           *ALTAR VLY
HOPKINS        N/A       64  15  15 W5G15             *SANTA RITA MTNS
CARR CYN       N/A       67  16  14 NW3               *W OF HEREFORD
$$

AZZ507-508-512-200015-
LOCATION       SKY/WX    TMP DP  RH WIND       PRES   REMARKS
SIERRA VISTA   SUNNY     70  11  10 SW13      30.03S
DOUGLAS        SUNNY     70  17  13 SE8       30.01F
EMPIRE MTNS    NOT AVBL
MULESHOE RANCH N/A       70  17  13 W5G14             *PRESERVE
HEADQUARTERS   N/A       66  10  11 SW3G15            *CHIRICAHUA MTNS
$$

.............................NOTES.............................
THIS IS AN AUTOMATED COLLECTIVE WITH MINIMAL QUALITY CONTROL.
PIMA CO DEQ SITES HAVE NONSTANDARD WIND SENSOR HEIGHTS.
PIMA CO DEQ SITES DO NOT REPORT WIND GUSTS.
* INDICATES WIND SENSORS LOCATED AT 20 FEET INSTEAD OF 33 FEET.
..............................KEY..............................
SKY/WX - SKY CONDITION/WEATHER
TMP    - TEMPERATURE IN FAHRENHEIT
DP     - DEWPOINT IN FAHRENHEIT
RH     - RELATIVE HUMIDITY IN PERCENT
WIND   - DIRECTION AND SPEED IN MILES PER HOUR (MPH)
VRB    - VARIABLE WIND DIRECTION
PRES   - MEAN SEA LEVEL PRESSURE IN INCHES OF MERCURY
         F - FALLING PRESSURE   R - RISING PRESSURE
         S - STEADY PRESSURE
VSB    - VISIBILITY IN MILES
HX     - HEAT INDEX IN FAHRENHEIT
WCI    - WIND CHILL INDEX IN FAHRENHEIT
N/A    - NOT AVAILABLE
AFB    - AIR FORCE BASE
         DAVIS-MONTHAN IS DAVIS-MONTHAN AIR FORCE BASE
CYN    - CANYON
MTNS   - MOUNTAINS
NCA    - NATIONAL CONSERVATION AREA
NR     - NEAR
VLY    - VALLEY
CONTL  - CONTINENTAL
PIMA CO DEQ - PIMA COUNTY DEPT OF ENVIRONMENTAL QUALITY



USA.gov is the U.S. government's official web portal to all federal, state and local government web resources and services.